Weather History for Monticello, KY

Change the Weather History Date:

Wednesday, November 30, 2011

  Actual Average Record
Temperature  
Mean Temperature 31 °F -  
Max Temperature 39 °F 51 °F 72 °F (2006)
Min Temperature 22 °F 32 °F 5 °F (1976)
Degree Days  
Heating Degree Days 34    
Moisture  
Dew Point 30 °F    
Average Humidity 84    
Maximum Humidity 97    
Minimum Humidity 63    
Precipitation  
Precipitation 0.00 in - - ()
Sea Level Pressure  
Sea Level Pressure 30.14 in    
Wind  
Wind Speed 8 mph (WNW)    
Max Wind Speed 13 mph    
Max Gust Speed -    
Visibility 9 miles    
Events Rain    
Averages and records for this station are not official NWS values.
T = Trace of Precipitation, MM = Missing Value Source: NWS Daily Summary

Daily Weather History Graph

Daily Weather History Graph

Search for Another Location

Airport:

Trip Planner

Search our weather history database for the weather conditions in past years. The results will help you decide how hot, cold, wet, or windy it might be!

Date:

Astronomy

Nov. 30, 2011 Rise Set
Actual Time 6:32 AM CST 4:23 PM CST
Civil Twilight 6:04 AM CST 4:51 PM CST
Nautical Twilight 5:32 AM CST 5:23 PM CST
Astronomical Twilight 5:00 AM CST 5:55 PM CST
Moon 10:54 AM CST (11/30) 10:14 PM CST (11/30)
Length of Visible Light 10h 47m
Length of Day
9h 50m
Waxing Crescent, 34% of the Moon is Illuminated
Nov 30
Waxing Crescent
Dec 2
First Quarter
Dec 10
Full
Dec 17
Last Quarter
Dec 24
New

Hourly Weather History & Observations

Time (CST) Temp. Windchill Dew Point Humidity Pressure Visibility Wind Dir Wind Speed Gust Speed Precip Events Conditions
12:56 AM 36.9 °F 30.1 °F 36.0 °F 97% 30.00 in 2.5 mi WNW 9.2 mph - 0.00 in Rain Light Rain
1:05 AM 37.4 °F 31.4 °F 35.6 °F 93% 29.97 in 3.0 mi West 8.1 mph - 0.00 in Rain Light Rain
1:43 AM 37.4 °F 30.3 °F 35.6 °F 93% 29.98 in 5.0 mi West 10.4 mph - 0.00 in   Overcast
2:56 AM 36.9 °F 28.7 °F 34.9 °F 93% 30.02 in 10.0 mi WNW 12.7 mph - 0.00 in   Overcast
3:56 AM 36.9 °F 29.1 °F 34.0 °F 89% 30.04 in 10.0 mi West 11.5 mph - N/A   Overcast
4:09 AM 37.4 °F 29.8 °F 33.8 °F 87% 30.00 in 10.0 mi West 11.5 mph - N/A   Overcast
4:24 AM 37.4 °F 29.8 °F 33.8 °F 87% 30.01 in 10.0 mi West 11.5 mph - N/A   Overcast
4:56 AM 36.9 °F 30.1 °F 32.9 °F 86% 30.06 in 10.0 mi West 9.2 mph - N/A   Overcast
5:56 AM 36.0 °F 28.5 °F 32.0 °F 86% 30.08 in 10.0 mi WNW 10.4 mph - N/A   Overcast
6:56 AM 36.0 °F 30.3 °F 32.0 °F 86% 30.12 in 10.0 mi NW 6.9 mph - N/A   Overcast
7:56 AM 34.9 °F 27.7 °F 31.1 °F 86% 30.15 in 10.0 mi NW 9.2 mph - N/A   Overcast
8:56 AM 36.0 °F 30.3 °F 31.1 °F 82% 30.18 in 10.0 mi NW 6.9 mph - N/A   Overcast
9:56 AM 36.0 °F 27.5 °F 30.0 °F 79% 30.19 in 10.0 mi WNW 12.7 mph - N/A   Overcast
10:56 AM 36.9 °F 30.7 °F 28.0 °F 70% 30.19 in 10.0 mi West 8.1 mph - N/A   Overcast
11:56 AM 37.9 °F 30.9 °F 29.1 °F 71% 30.18 in 10.0 mi West 10.4 mph - N/A   Overcast
12:56 PM 38.8 °F 35.4 °F 29.1 °F 68% 30.17 in 10.0 mi NW 4.6 mph - N/A   Overcast
1:49 PM 37.4 °F 33.8 °F 28.4 °F 70% 30.14 in 10.0 mi NW 4.6 mph - N/A   Scattered Clouds
1:56 PM 37.9 °F - 28.0 °F 68% 30.17 in 10.0 mi Calm Calm - N/A   Partly Cloudy
2:56 PM 39.9 °F - 28.0 °F 63% 30.18 in 10.0 mi Calm Calm - N/A   Clear
3:56 PM 36.9 °F 32.2 °F 28.0 °F 70% 30.19 in 10.0 mi SSW 5.8 mph - N/A   Clear
5:56 PM 30.0 °F - 28.0 °F 92% 30.25 in 10.0 mi Calm Calm - N/A   Mostly Cloudy
6:56 PM 27.1 °F - 26.1 °F 96% 30.25 in 10.0 mi Calm Calm - N/A   Clear
8:56 PM 24.1 °F - 23.0 °F 96% 30.29 in 10.0 mi Calm Calm - N/A   Clear
10:56 PM 23.0 °F - 22.1 °F 96% 30.30 in 5.0 mi Calm Calm - N/A   Clear
11:56 PM 22.1 °F - 21.0 °F 96% 30.30 in 8.0 mi Calm Calm - N/A   Clear